Wind_Speed
57 53 51 46 43 38 33 31 33 45 51 55 58 56 61 69 69 69 72 80 80 84 82 81 77 72 69 72 76 76 81 82 83 84 83 83 81 84 85 84 82 80 77 77
57 53 50 47 44 40 37 32 33 41 50 56 58 64 64 66 67 66 66 70 69 78 79 76 71 73 70 70 72 74 77 80 82 84 85 84 83 82 81 78 76 74 74 75
56 54 52 50 46 45 37 37 33 40 49 55 60 66 70 66 67 70 67 66 65 64 73 78 77 73 71 68 70 72 74 79 80 81 83 84 86 85 80 78 76 76 75 74
53 54 54 51 49 46 44 37 41 39 45 55 64 68 74 67 65 68 68 68 67 71 68 71 72 72 71 67 68 71 71 72 74 78 80 84 87 86 84 83 81 81 76 74
54 54 53 54 51 48 48 44 39 44 42 50 64 70 79 72 70 68 71 72 70 71 71 72 74 74 73 71 68 68 68 68 69 73 79 80 84 87 86 85 84 82 77 72
57 56 55 55 54 51 50 50 49 41 47 49 61 69 79 79 74 74 74 76 75 72 73 72 72 73 74 74 73 70 65 65 65 68 71 76 80 85 85 84 83 81 77 72
56 57 56 56 56 55 54 54 53 49 46 51 58 66 72 78 80 80 79 78 78 75 73 75 75 77 74 77 76 74 70 66 64 64 66 71 73 78 81 80 77 75 74 71
58 56 57 58 58 57 57 58 60 55 54 52 56 65 65 72 79 84 83 81 81 81 79 78 75 79 81 79 80 77 76 70 66 65 65 68 68 71 75 75 74 73 69 69
61 60 58 58 58 60 58 59 61 60 57 56 61 55 65 70 74 79 86 88 86 86 88 85 81 78 82 86 83 79 77 76 71 68 67 67 70 69 70 72 71 71 69 68
65 63 59 60 61 60 62 62 63 64 63 61 61 61 58 60 72 75 80 87 93 92 89 87 86 84 81 84 91 89 81 80 77 71 70 68 70 71 70 67 65 71 69 67
68 65 63 64 64 65 65 64 66 68 66 66 66 67 66 67 66 73 80 81 89 95 98 94 89 87 85 85 84 85 87 84 80 78 73 75 71 72 75 69 66 67 72 69
68 68 66 71 70 70 71 69 70 69 66 69 70 64 71 74 76 75 83 88 89 91 97 100 99 93 89 86 89 84 86 85 85 80 77 74 75 73 74 74 69 68 70 73
71 70 71 72 75 73 73 73 75 74 69 66 70 59 71 78 80 82 85 93 97 97 96 99 102 103 97 91 92 93 88 88 88 83 80 77 76 79 75 74 73 70 73 72
74 73 74 75 78 78 77 77 77 77 74 73 65 64 68 78 84 87 90 93 101 102 100 100 103 105 105 100 94 96 95 92 90 90 83 80 77 78 80 76 73 73 73 73
77 75 77 78 81 83 81 77 79 78 78 77 66 74 65 78 85 88 89 90 96 104 101 98 100 100 104 105 102 96 97 96 94 93 89 86 80 78 78 78 76 75 75 72
79 79 81 78 84 86 80 73 81 83 81 80 75 68 70 80 88 85 87 89 92 97 101 103 100 100 101 105 106 103 98 98 97 96 94 91 85 81 81 78 78 77 75 75
79 81 83 76 85 87 75 70 81 81 82 83 79 66 76 78 83 87 89 91 91 93 97 103 104 102 101 101 107 109 106 101 98 101 99 98 92 87 84 82 79 79 78 76
81 84 84 78 82 78 68 68 72 82 82 85 79 68 74 74 85 89 89 90 93 95 97 101 103 102 100 102 102 106 110 109 104 101 98 94 93 91 86 85 81 82 81 78
81 81 81 78 79 72 60 66 74 79 79 82 79 73 78 78 81 76 83 92 91 91 95 96 100 100 99 102 101 102 107 110 110 106 103 98 94 93 90 88 86 83 84 82
76 77 77 77 75 68 59 60 72 84 75 72 81 79 81 78 74 65 86 90 89 90 92 93 95 98 98 101 102 101 103 107 111 110 107 104 99 94 92 91 89 86 83 85
72 73 75 73 71 65 71 64 69 74 73 80 78 79 79 80 74 69 78 84 89 90 88 90 92 95 98 101 102 102 101 104 106 109 108 107 105 99 96 93 91 89 85 84
66 72 68 65 72 63 68 63 61 59 70 72 72 75 76 79 78 73 72 76 85 86 87 86 90 90 97 99 100 102 101 100 103 104 107 108 107 105 100 96 93 90 88 86
69 70 56 63 63 60 61 58 59 58 57 61 62 66 71 73 71 75 73 71 73 77 80 87 85 89 94 97 97 100 103 98 99 103 104 108 107 107 106 102 98 95 92 89
72 65 47 50 60 53 55 53 51 53 52 52 55 57 62 63 67 67 68 71 67 70 77 84 84 85 91 92 92 95 100 98 97 100 103 104 107 108 107 105 102 98 96 93
68 54 40 46 53 49 54 43 45 47 47 48 48 51 56 55 52 56 57 64 68 69 74 79 82 81 82 87 89 91 95 96 96 96 102 103 103 106 107 103 102 99 97 95
64 50 40 36 47 49 53 46 39 38 42 43 45 46 47 46 48 50 53 59 64 66 66 69 76 77 77 77 83 84 89 94 93 93 96 103 102 101 103 104 101 98 97 95
Wind_Direction
306 307 304 305 306 308 301 281 254 237 230 229 231 232 237 236 233 232 237 238 236 234 234 234 232 234 237 241 237 234 234 231 230 233 232 234 235 239 242 244 248 251 252 252
303 302 302 300 300 303 297 283 265 241 234 230 231 233 234 236 236 229 233 236 245 238 234 232 231 231 230 233 238 234 232 233 231 231 232 231 235 236 239 242 244 245 248 249
300 300 299 296 297 295 294 284 267 254 238 232 235 236 237 236 235 236 230 232 237 242 244 235 232 229 228 232 237 238 235 233 232 232 232 232 233 235 238 240 242 243 246 251
299 298 296 294 291 290 288 281 270 258 247 236 234 238 240 237 237 235 232 230 234 234 233 235 230 229 228 230 235 239 237 235 234 232 231 232 234 234 236 237 239 242 245 248
296 294 293 292 290 287 281 277 267 259 254 245 238 233 244 239 238 237 235 234 234 234 233 234 232 231 231 229 233 237 237 236 233 233 232 232 234 236 236 237 238 240 242 244
293 292 290 288 285 283 280 278 275 264 254 250 246 239 235 242 238 239 239 237 236 235 234 234 234 229 227 228 230 234 236 237 236 233 232 233 233 235 237 238 239 240 241 241
290 290 286 284 282 281 281 278 273 269 261 251 247 246 243 237 241 241 239 240 239 236 235 236 234 227 226 226 229 232 235 237 236 234 232 231 233 235 237 238 238 240 241 239
292 288 285 283 282 278 277 276 273 272 268 261 251 245 245 245 239 239 242 241 239 236 236 234 235 232 226 224 225 229 234 235 237 235 231 230 231 234 235 236 237 237 238 239
291 289 287 285 281 279 277 275 274 274 270 264 260 253 245 244 244 241 238 240 240 238 235 236 236 235 233 227 223 225 230 234 235 235 233 231 230 232 232 233 234 234 235 237
293 288 287 284 281 277 273 272 273 273 272 270 267 261 257 244 243 244 243 238 239 240 239 236 236 236 235 233 229 226 228 231 233 234 233 232 230 230 231 231 231 231 233 235
292 288 285 281 279 276 274 271 271 270 270 267 265 264 261 259 248 239 240 240 238 237 238 237 235 234 235 232 230 228 228 228 230 232 232 231 234 232 231 230 229 229 231 233
287 284 281 280 279 279 279 277 276 273 269 264 262 261 263 259 253 245 235 236 237 236 235 236 235 233 231 231 228 228 226 227 226 229 232 230 232 234 233 229 229 231 231 231
283 283 282 282 281 279 277 276 277 276 271 268 264 258 254 255 252 246 240 233 235 234 233 233 234 233 232 228 228 227 226 226 225 226 229 231 229 232 235 231 228 231 232 230
284 283 281 280 280 278 277 276 276 276 275 270 268 260 251 249 248 246 241 235 234 236 233 232 232 232 230 229 227 227 226 225 226 226 227 229 230 231 234 233 230 231 233 233
284 281 279 279 279 277 276 277 277 275 273 268 263 258 254 250 247 246 243 239 237 237 237 237 235 234 231 229 227 226 227 226 225 225 227 229 229 230 233 232 229 230 233 233
281 280 278 278 276 275 275 278 277 274 271 267 261 256 255 248 248 246 244 240 237 237 237 236 235 233 232 230 229 227 226 226 226 226 226 227 230 229 232 232 229 229 231 232
281 278 277 277 275 274 279 275 273 274 272 268 263 254 249 250 249 246 243 240 238 237 235 234 234 234 231 229 227 226 226 225 226 228 228 230 229 227 230 232 230 228 230 230
282 281 280 279 276 277 276 275 273 271 269 269 266 262 257 249 245 246 245 242 240 238 235 234 233 234 233 230 227 226 225 224 225 226 227 227 226 225 226 232 231 228 228 231
282 282 281 281 278 279 281 272 269 269 264 267 269 264 259 253 248 244 246 246 242 240 238 235 233 232 232 230 229 226 225 224 224 224 225 225 225 224 225 229 231 230 228 228
284 284 282 282 280 281 277 271 264 261 268 263 266 263 261 260 256 246 244 246 246 242 240 237 234 232 230 229 229 226 225 224 224 224 225 224 224 225 224 226 230 230 229 228
284 283 283 284 285 283 278 267 262 264 266 257 257 259 260 262 258 248 246 245 246 247 242 240 236 232 231 229 228 227 224 224 223 223 223 223 223 224 225 225 227 229 229 229
287 284 286 291 288 286 282 280 273 263 260 261 259 259 256 254 256 256 252 248 246 245 245 241 238 234 232 231 228 227 226 223 222 222 222 223 223 223 224 224 225 229 229 229
292 288 292 286 285 283 281 281 278 273 268 267 263 260 260 257 251 248 249 247 244 243 242 243 240 235 233 230 228 227 226 224 222 220 221 221 222 222 223 223 225 229 230 230
289 288 293 293 286 286 284 284 280 276 270 266 264 262 261 259 258 254 251 248 242 238 237 236 237 235 234 232 228 226 228 225 222 219 219 221 222 222 222 223 225 227 230 230
286 292 299 292 290 291 286 283 277 275 272 268 263 258 255 253 249 250 252 249 245 241 237 235 234 234 232 232 230 227 227 227 223 218 217 219 220 222 222 222 223 224 227 229
287 300 300 293 288 289 288 288 281 276 275 271 266 264 261 258 254 249 243 244 244 241 238 235 234 234 234 230 230 228 225 227 226 219 216 216 220 221 221 221 221 222 224 228
Height
10428 10424 10421 10419 10417 10415 10412 10409 10412 10415 10422 10428 10434 10443 10437 10435 10451 10459 10464 10469 10479 10491 10499 10509 10521 10531 10540 10543 10551 10561 10566 10574 10583 10588 10598 10603 10611 10612 10620 10627 10633 10641 10646 10649
10418 10413 10410 10409 10407 10406 10406 10403 10403 10406 10413 10418 10424 10421 10422 10426 10436 10446 10451 10458 10470 10475 10482 10491 10500 10510 10518 10521 10525 10538 10546 10555 10563 10571 10579 10589 10593 10597 10604 10612 10620 10625 10629 10633
10405 10402 10398 10396 10396 10395 10395 10394 10396 10396 10401 10409 10409 10407 10403 10417 10424 10431 10439 10447 10456 10463 10468 10476 10483 10494 10502 10508 10513 10520 10530 10537 10546 10555 10564 10571 10576 10583 10591 10598 10603 10608 10614 10621
10393 10388 10385 10383 10382 10384 10383 10384 10384 10385 10388 10394 10394 10394 10385 10404 10412 10420 10426 10432 10439 10447 10453 10462 10471 10480 10488 10494 10498 10502 10511 10519 10529 10536 10544 10552 10558 10566 10573 10580 10587 10593 10603 10606
10379 10374 10372 10370 10369 10370 10368 10369 10371 10373 10376 10378 10378 10382 10371 10389 10396 10404 10410 10416 10424 10429 10436 10444 10452 10463 10472 10478 10481 10486 10493 10503 10512 10517 10527 10534 10542 10548 10555 10561 10570 10577 10586 10590
10362 10361 10356 10353 10352 10354 10354 10353 10354 10359 10361 10364 10359 10362 10363 10368 10381 10387 10392 10398 10405 10412 10419 10427 10434 10443 10453 10461 10465 10471 10479 10485 10494 10500 10509 10518 10525 10531 10537 10546 10554 10561 10569 10576
10349 10344 10341 10338 10336 10336 10336 10337 10337 10341 10344 10345 10346 10341 10349 10360 10362 10366 10374 10380 10388 10396 10402 10407 10415 10424 10434 10444 10450 10456 10462 10470 10477 10483 10492 10499 10507 10514 10521 10531 10539 10546 10555 10562
10332 10329 10324 10321 10319 10320 10320 10319 10316 10321 10325 10327 10324 10326 10336 10337 10343 10349 10354 10362 10368 10375 10382 10389 10395 10403 10413 10423 10433 10440 10446 10453 10461 10468 10474 10481 10489 10496 10505 10515 10524 10532 10540 10548
10315 10311 10309 10305 10301 10299 10300 10299 10296 10298 10303 10305 10302 10310 10315 10319 10319 10327 10332 10336 10343 10350 10359 10367 10377 10385 10392 10403 10413 10422 10430 10436 10444 10451 10459 10466 10472 10479 10489 10498 10509 10517 10526 10534
10295 10291 10290 10285 10281 10279 10278 10278 10278 10276 10278 10281 10282 10285 10291 10300 10303 10305 10308 10314 10318 10325 10336 10346 10355 10364 10373 10381 10392 10403 10412 10420 10427 10434 10442 10450 10458 10465 10472 10483 10492 10501 10510 10519
10272 10271 10268 10261 10259 10257 10257 10257 10256 10254 10259 10259 10261 10259 10267 10270 10276 10280 10282 10285 10291 10300 10307 10318 10330 10340 10349 10359 10369 10380 10392 10402 10410 10416 10424 10434 10442 10450 10456 10467 10476 10485 10494 10503
10248 10248 10246 10234 10234 10234 10231 10232 10231 10229 10235 10233 10235 10247 10242 10241 10244 10250 10252 10253 10259 10269 10280 10289 10301 10312 10324 10335 10346 10358 10370 10381 10390 10398 10406 10417 10427 10433 10440 10451 10461 10469 10478 10486
10224 10224 10221 10217 10207 10209 10207 10208 10204 10201 10204 10209 10205 10228 10214 10207 10210 10215 10218 10224 10228 10237 10248 10258 10270 10285 10297 10309 10321 10333 10346 10359 10370 10380 10388 10398 10409 10417 10423 10434 10444 10454 10461 10470
10200 10199 10195 10191 10184 10180 10181 10181 10178 10175 10176 10176 10184 10187 10187 10177 10174 10176 10185 10197 10202 10209 10220 10230 10241 10253 10269 10283 10297 10310 10324 10336 10348 10360 10369 10379 10391 10400 10407 10417 10430 10439 10445 10456
10173 10172 10166 10163 10157 10150 10153 10160 10150 10148 10146 10140 10160 10144 10162 10148 10144 10148 10157 10170 10180 10184 10196 10208 10218 10231 10244 10257 10270 10285 10302 10315 10328 10339 10349 10361 10372 10383 10390 10401 10412 10421 10430 10440
10147 10144 10138 10141 10124 10119 10129 10141 10121 10112 10112 10108 10117 10128 10125 10115 10111 10126 10131 10140 10151 10157 10167 10177 10188 10200 10212 10231 10246 10263 10277 10293 10305 10316 10327 10340 10353 10364 10372 10382 10394 10404 10413 10423
10120 10113 10107 10117 10097 10089 10108 10113 10089 10084 10079 10074 10080 10104 10092 10095 10095 10095 10099 10109 10121 10132 10137 10145 10158 10171 10183 10198 10215 10233 10250 10267 10281 10293 10306 10318 10331 10344 10354 10363 10376 10387 10395 10405
10091 10081 10074 10081 10070 10073 10088 10083 10071 10049 10050 10044 10052 10073 10064 10071 10062 10065 10077 10086 10090 10098 10108 10115 10129 10144 10158 10169 10186 10204 10221 10239 10256 10270 10284 10297 10310 10324 10336 10345 10357 10368 10379 10387
10061 10055 10047 10046 10043 10051 10067 10052 10037 10028 10029 10025 10028 10039 10029 10032 10035 10058 10060 10051 10064 10074 10081 10093 10103 10118 10130 10142 10160 10178 10193 10212 10229 10245 10260 10275 10289 10303 10317 10327 10336 10348 10360 10371
10038 10027 10021 10020 10017 10026 10036 10028 10009 9989 9998 10017 9999 10004 10000 10006 10016 10044 10020 10028 10040 10046 10055 10068 10079 10090 10106 10116 10132 10150 10166 10183 10200 10219 10235 10251 10267 10281 10295 10306 10315 10328 10341 10352
10014 10008 9999 9997 9995 10002 9985 9989 9984 9978 9981 9967 9976 9978 9980 9974 9984 10004 10002 10007 10014 10019 10031 10041 10053 10067 10077 10089 10104 10121 10140 10156 10175 10194 10211 10227 10244 10259 10273 10286 10297 10309 10323 10334
9998 9983 9983 9980 9965 9970 9955 9957 9953 9958 9949 9948 9953 9953 9952 9952 9958 9973 9980 9985 9984 9991 10002 10014 10027 10044 10052 10062 10080 10096 10113 10131 10150 10169 10187 10203 10219 10237 10252 10266 10279 10289 10302 10314
9974 9960 9971 9956 9949 9944 9936 9935 9930 9930 9934 9931 9932 9932 9932 9932 9938 9939 9947 9955 9960 9969 9980 9987 10002 10017 10022 10034 10056 10073 10085 10107 10126 10145 10161 10178 10196 10213 10228 10244 10259 10270 10281 10295
9943 9940 9950 9942 9923 9925 9918 9915 9914 9909 9909 9909 9908 9909 9907 9914 9916 9923 9927 9929 9938 9947 9954 9961 9973 9986 9998 10013 10034 10050 10061 10082 10102 10122 10140 10155 10173 10189 10206 10224 10239 10252 10263 10276
9922 9926 9929 9918 9907 9907 9895 9902 9896 9891 9890 9889 9889 9888 9887 9891 9897 9899 9908 9910 9914 9921 9930 9938 9950 9961 9977 9991 10010 10028 10041 10057 10077 10098 10117 10134 10150 10167 10185 10203 10218 10232 10244 10256
9904 9912 9909 9906 9893 9890 9880 9880 9880 9878 9873 9871 9870 9868 9871 9878 9880 9883 9886 9887 9891 9899 9909 9922 9933 9946 9958 9972 9988 10005 10025 10038 10055 10077 10096 10114 10130 10147 10165 10183 10199 10213 10225 10236